Location: Ajisawe
(8.4333°N, 4.3833°E)
Time: 00:37:38
(UTC+00:00)

A-11 Canister half - Pass Details

Date: 20 April 2021
Orbit: 1514 x 1685 km, 47.2° (Epoch: 15 May)

Event Time Altitude Azimuth Distance (km) Brightness Sun altitude
Rises 04:54:04 0° 320° (NW) 4,888 11.4 -9.7°
Reaches altitude 10° 04:57:11 10° 321° (NW) 3,915 10.9 -9.0°
Maximum altitude 05:07:20 87° 51° (NE) 1,686 9.3 -6.6°
Drops below altitude 10° 05:17:31 10° 139° (SE) 3,932 11.6 -4.1°
Sets 05:20:39 0° 139° (SE) 4,910 12.1 -3.3°
